Tracking 29892 objects as of 21-Nov-2024
HD Live streaming from Space Station
objects crossing your sky now

STARLINK-5122

Track STARLINK-5122 now!
10-day predictions
STARLINK-5122 is classified as:


NORAD ID: 54179
Int'l Code: 2022-141Y
Perigee: 545.8 km
Apogee: 548.0 km
Inclination: 53.2 °
Period: 95.4 minutes
Semi major axis: 6917 km
RCS: Unknown
Launch date: October 28, 2022
Source: United States (US)
Launch site: AIR FORCE WESTERN TEST RANGE (AFWTR)
Your satellite tracking list
Your tracking list is empty




NASA's NSSDC Master Catalog

Two Line Element Set (TLE):
1 54179U 22141Y   24324.31473906  .00000958  00000-0  78261-4 0  9994
2 54179  53.2182 338.0535 0001605  91.7231 268.3945 15.08843048114094
Source of the keplerian elements: AFSPC